Weather History for Columbus, OH

Change the Weather History Date:

Wednesday, May 9, 2012

  Actual Average Record
Temperature  
Mean Temperature 62 °F 60 °F  
Max Temperature 70 °F 71 °F 93 °F (1896)
Min Temperature 54 °F 50 °F 30 °F (1983)
Degree Days  
Heating Degree Days 3 6  
Month to date heating degree days 3 60  
Since 1 July heating degree days 4172 5142  
Cooling Degree Days 0 1  
Month to date cooling degree days 53 9  
Year to date cooling degree days 89 21  
Growing Degree Days 14 (Base 50)    
Moisture  
Dew Point 46 °F    
Average Humidity 54    
Maximum Humidity 75    
Minimum Humidity 33    
Precipitation  
Precipitation T in 0.12 in 1.12 in (1909)
Month to date precipitation 2.09 1.11  
Year to date precipitation 16.32 12.51  
Snow  
Snow 0.00 in 0.00 in - (0.0)
Month to date snowfall 0.0 0.0  
Since 1 July snowfall 12.2 26.7  
Snow Depth 0.00 in    
Sea Level Pressure  
Sea Level Pressure 29.81 in    
Wind  
Wind Speed 9 mph (WNW)    
Max Wind Speed 24 mph    
Max Gust Speed 31 mph    
Visibility 10 miles    
Events      
T = Trace of Precipitation, MM = Missing Value Source: NWS Daily Summary

Daily Weather History Graph

Daily Weather History Graph

Search for Another Location

Airport:

Trip Planner

Search our weather history database for the weather conditions in past years. The results will help you decide how hot, cold, wet, or windy it might be!

Date:

Astronomy

May. 09, 2012 Rise Set
Actual Time 6:21 AM EDT 8:34 PM EDT
Civil Twilight 5:51 AM EDT 9:04 PM EDT
Nautical Twilight 5:14 AM EDT 9:42 PM EDT
Astronomical Twilight 4:34 AM EDT 10:22 PM EDT
Moon No Moon Rise 9:35 AM EDT (5/9)
Length of Visible Light 15h 13m
Length of Day
14h 12m
Waning Gibbous, 83% of the Moon is Illuminated
May 9
Waning Gibbous
May 12
Last Quarter
May 20
New
May 28
First Quarter
Jun 4
Full

Hourly Weather History & Observations

Time (EDT) Temp. Dew Point Humidity Pressure Visibility Wind Dir Wind Speed Gust Speed Precip Events Conditions
12:51 AM 62.1 °F 52.0 °F 70% 29.84 in 10.0 mi West 3.5 mph - N/A   Mostly Cloudy
1:51 AM 61.0 °F 51.1 °F 70% 29.85 in 10.0 mi West 3.5 mph - N/A   Overcast
2:51 AM 60.1 °F 50.0 °F 69% 29.84 in 10.0 mi West 3.5 mph - N/A   Mostly Cloudy
3:51 AM 59.0 °F 51.1 °F 75% 29.83 in 10.0 mi Calm Calm - N/A   Mostly Cloudy
4:51 AM 57.2 °F 48.2 °F 72% 29.85 in 10.0 mi WNW 5.8 mph - N/A   Overcast
5:51 AM 57.0 °F 48.9 °F 74% 29.83 in 10.0 mi Calm Calm - N/A   Overcast
6:51 AM 57.0 °F 48.9 °F 74% 29.84 in 10.0 mi Calm Calm - N/A   Overcast
7:51 AM 57.2 °F 48.2 °F 72% 29.86 in 10.0 mi Calm Calm - N/A   Overcast
8:51 AM 60.1 °F 48.0 °F 64% 29.84 in 10.0 mi West 3.5 mph - N/A   Mostly Cloudy
9:51 AM 64.4 °F 48.2 °F 56% 29.84 in 10.0 mi West 6.9 mph - N/A   Mostly Cloudy
10:51 AM 66.9 °F 46.0 °F 47% 29.82 in 10.0 mi West 9.2 mph - N/A   Mostly Cloudy
11:51 AM 68.0 °F 45.0 °F 43% 29.82 in 10.0 mi WNW 12.7 mph 20.7 mph N/A   Mostly Cloudy
12:51 PM 66.9 °F 42.1 °F 40% 29.81 in 10.0 mi West 18.4 mph 21.9 mph N/A   Mostly Cloudy
1:51 PM 68.0 °F 43.0 °F 40% 29.78 in 10.0 mi NW 18.4 mph 26.5 mph N/A   Scattered Clouds
2:51 PM 69.1 °F 42.1 °F 38% 29.77 in 10.0 mi West 18.4 mph 26.5 mph N/A   Scattered Clouds
3:51 PM 69.1 °F 42.1 °F 38% 29.76 in 10.0 mi WNW 18.4 mph 25.3 mph N/A   Scattered Clouds
4:51 PM 69.1 °F 39.9 °F 35% 29.74 in 10.0 mi NW 21.9 mph 29.9 mph N/A   Scattered Clouds
5:51 PM 66.9 °F 42.1 °F 40% 29.75 in 10.0 mi NNW 11.5 mph - N/A   Scattered Clouds
6:51 PM 62.1 °F 45.0 °F 53% 29.77 in 10.0 mi NW 17.3 mph - 0.00 in   Mostly Cloudy
7:51 PM 62.1 °F 43.0 °F 50% 29.78 in 10.0 mi NW 11.5 mph - N/A   Mostly Cloudy
8:51 PM 61.0 °F 43.0 °F 52% 29.80 in 10.0 mi North 10.4 mph - N/A   Mostly Cloudy
9:51 PM 59.0 °F 43.0 °F 55% 29.82 in 10.0 mi NNW 13.8 mph - N/A   Mostly Cloudy
10:51 PM 57.9 °F 43.0 °F 58% 29.82 in 10.0 mi NNW 6.9 mph - N/A   Mostly Cloudy